• In Hungary
  • List of Countries
  • For 7 days
  • Water Temperature
  • Satellite Maps
  • Weather Map
  • News
  • Weather Widgets
  • user-avatar
    Login

    Hourly Weather Horodys'ka

    Today, 24 October, Tuesday

    Time Temperature Precipitation Wind Pressure Humidity
    00:00 +5°C° 0.4 mm 6 mps 737 mmHg 84%
    01:00 +5°C° 0.4 mm 6 mps 737 mmHg 85%
    02:00 +5°C° 0.4 mm 6 mps 737 mmHg 86%
    03:00 +4°C° 0.4 mm 6 mps 738 mmHg 86%
    04:00 +4°C° 0.4 mm 6 mps 738 mmHg 86%
    05:00 +4°C° 0.4 mm 6 mps 738 mmHg 86%
    06:00 +4°C° 0.6 mm 6 mps 739 mmHg 85%
    07:00 +4°C° 0.6 mm 6 mps 740 mmHg 84%
    08:00 +4°C° 0.6 mm 6 mps 740 mmHg 83%
    09:00 +4°C° 0.5 mm 6 mps 741 mmHg 81%
    10:00 +4°C° 0.5 mm 6 mps 741 mmHg 78%
    11:00 +4°C° 0.5 mm 6 mps 742 mmHg 76%
    12:00 +5°C° 0.2 mm 5 mps 742 mmHg 74%
    13:00 +5°C° 0.2 mm 5 mps 743 mmHg 71%
    14:00 +6°C° 0.2 mm 5 mps 743 mmHg 69%
    15:00 +5°C° 0 mm 5 mps 743 mmHg 69%
    16:00 +5°C° 0 mm 4 mps 744 mmHg 69%
    17:00 +5°C° 0 mm 4 mps 744 mmHg 69%
    18:00 +4°C° 0 mm 4 mps 745 mmHg 70%
    19:00 +4°C° 0 mm 4 mps 745 mmHg 72%
    20:00 +3°C° 0 mm 3 mps 746 mmHg 73%
    21:00 +2°C° 0 mm 3 mps 746 mmHg 74%
    22:00 +2°C° 0 mm 3 mps 746 mmHg 76%
    23:00 +2°C° 0 mm 2 mps 746 mmHg 77%

    Tomorrow, 25 October, Wednesday

    Time Temperature Precipitation Wind Pressure Humidity
    00:00 +2°C° 0 mm 2 mps 747 mmHg 78%
    01:00 +1°C° 0 mm 3 mps 747 mmHg 79%
    02:00 0°C° 0 mm 3 mps 747 mmHg 79%
    03:00 0°C° 0 mm 3 mps 747 mmHg 79%
    04:00 0°C° 0 mm 3 mps 747 mmHg 80%
    05:00 -1°C° 0 mm 3 mps 747 mmHg 80%
    06:00 0°C° 0 mm 3 mps 748 mmHg 78%
    07:00 0°C° 0 mm 3 mps 748 mmHg 76%
    08:00 0°C° 0 mm 3 mps 748 mmHg 74%
    09:00 +2°C° 0 mm 3 mps 748 mmHg 68%
    10:00 +4°C° 0 mm 2 mps 748 mmHg 61%
    11:00 +6°C° 0 mm 2 mps 748 mmHg 55%
    12:00 +6°C° 0 mm 2 mps 748 mmHg 52%
    13:00 +7°C° 0 mm 2 mps 748 mmHg 50%
    14:00 +8°C° 0 mm 2 mps 747 mmHg 47%
    15:00 +7°C° 0 mm 2 mps 747 mmHg 51%
    16:00 +6°C° 0 mm 2 mps 747 mmHg 54%
    17:00 +6°C° 0 mm 2 mps 747 mmHg 58%
    18:00 +5°C° 0 mm 2 mps 747 mmHg 60%
    19:00 +5°C° 0 mm 2 mps 747 mmHg 62%
    20:00 +4°C° 0 mm 2 mps 747 mmHg 64%
    21:00 +3°C° 0 mm 3 mps 747 mmHg 65%
    22:00 +3°C° 0 mm 3 mps 747 mmHg 65%
    23:00 +3°C° 0 mm 3 mps 746 mmHg 66%

    Day after tomorrow, 26 October, Thursday

    Time Temperature Precipitation Wind Pressure Humidity
    00:00 +3°C° 0 mm 3 mps 746 mmHg 66%
    01:00 +3°C° 0 mm 3 mps 746 mmHg 66%
    02:00 +4°C° 0 mm 3 mps 746 mmHg 66%
    03:00 +4°C° 0 mm 3 mps 745 mmHg 67%
    04:00 +4°C° 0 mm 3 mps 745 mmHg 68%
    05:00 +4°C° 0 mm 3 mps 745 mmHg 68%
    06:00 +4°C° 0 mm 3 mps 745 mmHg 70%
    07:00 +5°C° 0 mm 3 mps 745 mmHg 71%
    08:00 +5°C° 0 mm 3 mps 745 mmHg 72%
    09:00 +7°C° 0.2 mm 3 mps 745 mmHg 73%
    10:00 +8°C° 0.2 mm 3 mps 744 mmHg 74%
    11:00 +9°C° 0.2 mm 3 mps 744 mmHg 75%
    12:00 +10°C° 0 mm 4 mps 744 mmHg 72%
    13:00 +12°C° 0 mm 4 mps 744 mmHg 69%
    14:00 +13°C° 0 mm 4 mps 744 mmHg 67%
    15:00 +12°C° 0 mm 4 mps 743 mmHg 70%
    16:00 +12°C° 0 mm 3 mps 743 mmHg 74%
    17:00 +11°C° 0 mm 3 mps 743 mmHg 77%
    18:00 +11°C° 0 mm 3 mps 743 mmHg 80%
    19:00 +10°C° 0 mm 2 mps 743 mmHg 83%
    20:00 +9°C° 0 mm 2 mps 743 mmHg 87%
    21:00 +9°C° 0 mm 2 mps 743 mmHg 85%
    22:00 +10°C° 0 mm 2 mps 742 mmHg 84%
    23:00 +10°C° 0 mm 2 mps 742 mmHg 83%

    27 October, Friday

    Time Temperature Precipitation Wind Pressure Humidity
    00:00 +10°C° 0 mm 3 mps 742 mmHg 82%
    01:00 +10°C° 0 mm 3 mps 742 mmHg 82%
    02:00 +10°C° 0 mm 3 mps 741 mmHg 81%
    03:00 +10°C° 0 mm 3 mps 741 mmHg 83%
    04:00 +9°C° 0 mm 2 mps 740 mmHg 84%
    05:00 +9°C° 0 mm 2 mps 740 mmHg 86%
    06:00 +9°C° 0 mm 3 mps 739 mmHg 85%
    07:00 +9°C° 0 mm 3 mps 739 mmHg 84%
    08:00 +10°C° 0 mm 3 mps 738 mmHg 82%
    09:00 +11°C° 0.1 mm 4 mps 738 mmHg 77%
    10:00 +12°C° 0.1 mm 4 mps 737 mmHg 73%
    11:00 +13°C° 0.1 mm 5 mps 736 mmHg 68%
    12:00 +14°C° 0 mm 5 mps 736 mmHg 64%
    13:00 +15°C° 0 mm 5 mps 735 mmHg 60%
    14:00 +16°C° 0 mm 5 mps 734 mmHg 56%
    15:00 +15°C° 0.2 mm 4 mps 733 mmHg 61%
    16:00 +14°C° 0.2 mm 3 mps 733 mmHg 66%
    17:00 +14°C° 0.2 mm 2 mps 732 mmHg 71%
    18:00 +13°C° 0 mm 2 mps 732 mmHg 75%
    19:00 +13°C° 0 mm 2 mps 731 mmHg 78%
    20:00 +12°C° 0 mm 1 mps 730 mmHg 82%
    21:00 +12°C° 0.4 mm 2 mps 730 mmHg 83%
    22:00 +12°C° 0.4 mm 2 mps 730 mmHg 84%
    23:00 +11°C° 0.4 mm 3 mps 729 mmHg 85%

    28 October, Saturday

    Time Temperature Precipitation Wind Pressure Humidity
    00:00 +10°C° 0.8 mm 4 mps 729 mmHg 85%
    01:00 +9°C° 0.8 mm 6 mps 729 mmHg 85%
    02:00 +8°C° 0.8 mm 7 mps 729 mmHg 84%
    03:00 +8°C° 0.1 mm 7 mps 729 mmHg 84%
    04:00 +7°C° 0.1 mm 6 mps 730 mmHg 83%
    05:00 +7°C° 0.1 mm 6 mps 730 mmHg 82%
    06:00 +7°C° 0 mm 6 mps 730 mmHg 81%
    07:00 +7°C° 0 mm 5 mps 731 mmHg 81%
    08:00 +7°C° 0 mm 5 mps 731 mmHg 80%
    09:00 +7°C° 0.1 mm 6 mps 731 mmHg 75%
    10:00 +8°C° 0.1 mm 6 mps 731 mmHg 71%
    11:00 +9°C° 0.1 mm 7 mps 731 mmHg 66%
    12:00 +9°C° 0.3 mm 7 mps 731 mmHg 67%
    13:00 +9°C° 0.3 mm 7 mps 730 mmHg 67%
    14:00 +9°C° 0.3 mm 7 mps 730 mmHg 68%
    15:00 +8°C° 0 mm 6 mps 730 mmHg 70%
    16:00 +8°C° 0 mm 5 mps 730 mmHg 73%
    17:00 +7°C° 0 mm 4 mps 730 mmHg 75%
    18:00 +7°C° 0 mm 4 mps 730 mmHg 78%
    19:00 +7°C° 0 mm 3 mps 730 mmHg 82%
    20:00 +5°C° 0 mm 3 mps 730 mmHg 85%
    21:00 +6°C° 0 mm 2 mps 730 mmHg 85%
    22:00 +6°C° 0 mm 2 mps 730 mmHg 86%
    23:00 +5°C° 0 mm 2 mps 730 mmHg 87%

    29 October, Sunday

    Time Temperature Precipitation Wind Pressure Humidity
    00:00 +5°C° 0 mm 3 mps 729 mmHg 85%
    01:00 +5°C° 0 mm 3 mps 729 mmHg 83%
    02:00 +5°C° 0 mm 4 mps 729 mmHg 82%
    03:00 +5°C° 0.1 mm 4 mps 728 mmHg 80%
    04:00 +5°C° 0.1 mm 4 mps 728 mmHg 79%
    05:00 +5°C° 0.1 mm 4 mps 728 mmHg 77%
    06:00 +5°C° 0.1 mm 4 mps 728 mmHg 76%
    07:00 +5°C° 0.1 mm 4 mps 728 mmHg 75%
    08:00 +5°C° 0.1 mm 4 mps 728 mmHg 74%
    09:00 +7°C° 0 mm 4 mps 728 mmHg 68%
    10:00 +9°C° 0 mm 3 mps 728 mmHg 61%
    11:00 +10°C° 0 mm 3 mps 728 mmHg 55%
    12:00 +11°C° 0 mm 3 mps 727 mmHg 53%
    13:00 +11°C° 0 mm 3 mps 727 mmHg 50%
    14:00 +12°C° 0 mm 3 mps 727 mmHg 47%
    15:00 +11°C° 0 mm 3 mps 727 mmHg 52%
    16:00 +10°C° 0 mm 3 mps 726 mmHg 56%
    17:00 +10°C° 0 mm 3 mps 726 mmHg 60%
    18:00 +10°C° 0.2 mm 3 mps 726 mmHg 63%
    19:00 +9°C° 0.2 mm 3 mps 727 mmHg 66%
    20:00 +8°C° 0.2 mm 4 mps 727 mmHg 68%
    21:00 +8°C° 0.2 mm 4 mps 727 mmHg 70%
    22:00 +8°C° 0.2 mm 4 mps 727 mmHg 72%
    23:00 +9°C° 0.2 mm 3 mps 727 mmHg 74%

    30 October, Monday

    Time Temperature Precipitation Wind Pressure Humidity
    00:00 +9°C° 0.1 mm 3 mps 726 mmHg 79%
    01:00 +9°C° 0.1 mm 3 mps 726 mmHg 83%
    02:00 +8°C° 0.1 mm 2 mps 726 mmHg 87%
    03:00 +9°C° 0.6 mm 3 mps 726 mmHg 89%
    04:00 +9°C° 0.6 mm 3 mps 725 mmHg 92%
    05:00 +9°C° 0.6 mm 3 mps 725 mmHg 94%
    06:00 +8°C° 2.7 mm 4 mps 725 mmHg 94%
    07:00 +8°C° 2.7 mm 5 mps 725 mmHg 94%
    08:00 +8°C° 2.7 mm 5 mps 725 mmHg 94%
    09:00 +8°C° 1.4 mm 5 mps 725 mmHg 94%
    10:00 +8°C° 1.4 mm 5 mps 724 mmHg 93%
    11:00 +8°C° 1.4 mm 5 mps 724 mmHg 93%
    12:00 +8°C° 0.4 mm 5 mps 724 mmHg 92%
    13:00 +8°C° 0.4 mm 5 mps 724 mmHg 91%
    14:00 +8°C° 0.4 mm 5 mps 724 mmHg 90%
    15:00 +8°C° 0.4 mm 6 mps 724 mmHg 90%
    16:00 +8°C° 0.4 mm 6 mps 725 mmHg 89%
    17:00 +6°C° 0.4 mm 7 mps 725 mmHg 89%
    18:00 +6°C° 0.5 mm 7 mps 725 mmHg 88%
    19:00 +6°C° 0.5 mm 8 mps 725 mmHg 87%
    20:00 +5°C° 0.5 mm 8 mps 725 mmHg 86%
    21:00 +5°C° 0.3 mm 8 mps 726 mmHg 85%
    22:00 +5°C° 0.3 mm 8 mps 726 mmHg 85%
    23:00 +5°C° 0.3 mm 8 mps 726 mmHg 84%
    Show more